Temperature
17 17 17 17 17 17 17 17 17 17 17 17 17 17 17 16 17 17 17 17 17 17 17 17 17 17 17 17 17 17 17 17 17 17 17 17 17 16 16 16 16 16 16
17 16 16 16 16 16 16 16 16 16 16 16 16 16 16 16 16 16 17 17 17 17 17 17 17 17 17 17 17 17 17 17 17 17 17 17 16 16 16 16 16 16 16
16 16 16 16 16 16 16 16 16 16 16 16 16 16 16 16 16 16 16 16 16 17 16 17 17 17 16 16 16 16 17 17 17 17 17 17 16 16 16 16 16 16 16
16 16 16 16 16 15 15 15 15 15 15 15 15 15 15 16 16 16 16 16 16 16 16 16 16 16 16 16 16 16 16 16 16 16 16 16 16 16 16 16 16 16 16
16 15 15 15 15 15 15 15 15 15 15 15 15 15 15 15 15 16 16 16 16 16 16 16 16 16 16 16 16 16 16 16 16 16 16 16 16 16 16 16 16 16 16
15 15 15 15 15 15 14 14 14 14 14 14 15 15 15 15 15 15 16 16 16 16 16 16 16 16 16 16 16 16 16 16 16 16 16 16 16 16 16 16 16 16 16
15 15 15 15 14 14 14 14 14 14 14 14 14 15 15 15 15 15 15 15 15 16 16 16 16 16 16 16 16 16 16 16 16 16 16 16 16 16 16 16 16 16 16
15 15 14 14 14 14 14 14 13 13 13 13 14 14 14 14 14 14 15 15 15 15 15 16 16 16 16 16 16 16 16 16 16 16 16 16 16 16 16 16 16 16 16
15 14 14 14 14 14 13 13 13 13 13 13 13 13 13 13 14 14 14 14 14 15 15 15 15 15 16 16 16 16 16 16 16 16 16 16 16 16 16 16 16 16 16
14 14 14 14 13 13 13 13 13 13 13 13 12 12 13 13 13 13 14 14 14 14 14 15 15 15 15 15 16 16 16 16 15 15 15 16 15 16 16 16 16 16 16
14 14 14 13 13 13 13 13 13 12 12 12 12 12 12 12 12 12 13 13 14 14 14 14 14 14 15 15 15 15 15 15 15 15 15 15 15 15 15 15 15 16 16
14 14 13 13 13 13 13 12 12 12 12 12 12 12 12 12 11 11 12 12 13 13 13 14 14 14 14 14 15 15 15 15 15 15 15 15 15 15 15 15 15 15 15
14 14 13 13 13 13 12 12 12 12 12 12 11 11 11 11 11 11 11 11 12 12 13 13 13 13 13 14 14 14 14 14 14 15 15 15 15 15 15 15 15 15 15
14 13 13 13 13 12 12 12 12 12 12 11 11 11 11 11 11 11 11 11 11 11 12 12 13 13 13 13 13 13 14 14 14 14 14 14 15 15 15 15 15 15 15
14 13 13 13 13 12 12 12 12 12 12 11 11 11 11 11 11 11 11 10 10 10 10 12 12 12 12 12 13 13 13 13 14 14 14 14 14 14 14 15 15 15 15
14 13 13 13 13 12 12 12 12 12 12 11 11 11 11 11 11 11 10 10 10 10 10 11 11 11 12 12 12 12 13 13 13 13 14 14 14 14 14 14 14 14 15
14 13 13 13 13 13 12 12 12 12 12 12 11 11 11 11 11 10 10 10 10 10 10 10 11 11 11 11 11 12 12 12 13 13 13 13 13 14 14 14 14 14 14
14 13 13 13 13 13 13 13 12 12 12 12 11 11 11 11 11 10 10 10 10 10 10 10 10 10 11 11 11 11 11 12 12 12 13 13 13 13 13 14 14 14 14
14 14 14 13 13 13 13 13 12 12 12 12 12 11 11 11 11 10 10 10 10 10 9 9 10 10 10 10 10 11 11 11 11 12 12 12 12 13 13 13 13 13 14
14 14 14 14 13 13 13 13 12 12 12 12 12 11 11 11 11 10 10 10 10 10 9 9 9 9 10 10 10 10 10 11 11 11 11 12 12 12 12 13 13 13 13
15 14 14 14 14 13 13 13 12 12 12 12 12 11 11 11 11 10 10 10 10 9 9 9 9 9 9 10 10 10 10 10 10 11 11 11 12 12 12 12 12 13 13
15 15 14 14 14 14 13 13 12 12 12 12 12 11 11 11 11 10 10 10 9 9 9 9 9 9 9 9 9 9 9 9 10 10 10 11 11 11 12 12 12 12 13
15 15 15 14 14 14 13 13 13 12 12 12 12 11 11 11 11 10 10 10 9 9 9 9 9 9 9 9 9 9 9 9 9 9 9 10 11 11 11 12 12 12 12
15 15 15 14 14 14 13 13 13 12 12 12 12 12 11 11 11 10 10 10 10 9 9 9 9 9 9 8 8 8 8 8 9 9 9 9 10 11 11 11 12 12 12
15 15 15 14 14 14 14 13 13 12 12 12 12 12 11 11 11 10 10 10 10 10 9 9 9 8 8 8 8 8 8 8 8 9 9 8 9 10 10 11 12 12 12
15 15 15 14 14 14 14 13 13 12 12 12 12 12 12 11 11 11 10 10 10 10 9 9 9 9 8 8 8 8 8 8 7 8 9 8 9 9 9 10 11 11 11
Wind_Speed
2 2 2 2 2 2 1 1 0 1 1 1 1 1 2 3 4 5 6 7 8 10 13 13 14 15 15 16 16 16 16 16 16 16 15 15 14 14 13 13 12 13 12
4 3 2 2 2 2 1 1 1 0 1 1 2 2 3 4 4 5 6 7 8 10 12 13 14 15 15 16 17 17 17 17 17 18 17 17 16 16 15 14 14 13 13
5 4 3 2 2 3 3 3 2 2 1 1 2 2 2 3 4 5 6 7 7 9 11 13 13 14 16 16 17 18 18 19 19 19 19 19 18 18 17 16 15 15 15
7 5 3 2 3 4 4 2 2 2 2 2 2 2 2 2 4 4 5 5 6 7 9 12 13 15 16 16 17 18 19 20 21 21 21 20 20 19 19 18 17 17 16
7 6 4 3 4 4 3 2 2 1 1 2 2 2 2 2 2 3 3 4 5 6 7 9 12 14 16 16 17 18 19 20 21 22 22 22 21 21 21 20 19 19 18
7 7 5 5 5 4 3 3 3 3 1 2 2 3 2 2 2 2 2 3 3 4 5 6 7 9 12 15 16 17 17 20 21 22 23 23 23 23 23 22 21 21 20
6 6 4 4 3 3 3 2 2 3 3 2 2 3 3 3 3 3 3 3 3 4 3 4 5 6 8 11 14 16 17 18 20 22 23 24 24 25 25 24 24 23 22
5 5 5 3 3 3 3 3 2 2 2 3 2 2 3 4 3 4 3 4 5 5 5 5 4 4 6 7 9 13 16 17 19 20 21 24 25 25 26 26 26 25 24
4 5 5 4 3 3 3 2 2 3 1 2 2 2 2 1 3 3 3 4 5 4 5 6 5 5 5 6 7 9 12 14 17 19 20 22 25 27 27 27 27 27 26
3 5 5 5 4 3 3 2 2 2 2 1 1 1 1 1 0 3 3 3 5 5 6 5 6 6 6 5 6 8 9 11 12 15 18 20 23 25 27 28 28 28 28
1 4 5 5 4 2 2 2 2 2 1 1 1 0 1 1 0 1 3 4 4 3 4 4 4 5 6 6 5 6 7 8 10 12 14 16 19 22 24 26 27 28 28
0 2 4 4 4 3 3 2 2 2 2 2 1 1 1 1 1 1 2 3 4 4 4 3 3 4 6 6 7 8 8 7 7 8 9 12 14 17 20 23 25 26 28
2 3 3 3 3 3 3 3 2 2 2 2 2 2 2 2 2 2 2 2 3 3 3 3 3 4 5 6 7 9 8 7 6 7 8 9 10 12 15 18 21 23 25
3 3 3 3 3 3 3 3 2 2 2 3 3 3 2 3 3 3 2 2 3 3 2 3 3 3 5 7 8 9 7 8 8 7 8 9 9 11 13 15 17 18 21
3 4 4 3 3 3 3 3 2 2 2 3 3 3 3 3 3 4 4 3 3 4 4 3 2 3 5 8 9 8 8 10 9 9 9 10 10 10 11 13 14 16 18
4 4 4 4 3 3 3 3 3 3 3 3 3 3 4 3 3 3 4 4 5 4 5 3 3 4 6 9 10 9 9 11 11 11 11 11 11 12 12 13 14 15 17
5 5 5 5 4 4 4 3 4 4 4 4 4 4 5 4 3 3 3 4 4 5 6 6 4 4 4 7 8 9 9 9 9 12 12 13 13 13 13 14 14 15 17
6 6 5 5 5 5 4 5 5 4 5 5 5 5 6 4 5 4 4 5 5 6 6 8 5 4 5 6 6 7 7 7 8 11 12 13 14 15 15 15 15 15 16
6 6 6 6 6 6 5 6 6 6 6 6 6 6 6 5 6 5 5 6 5 5 6 6 6 4 4 4 5 5 6 6 7 9 11 12 13 14 14 15 15 15 16
7 7 7 7 7 6 6 6 6 6 6 7 7 7 7 7 8 7 6 7 6 6 6 6 7 6 5 5 4 5 6 4 5 7 9 10 11 12 13 14 15 16 16
8 7 7 7 7 6 7 7 7 7 7 8 7 7 8 9 11 9 7 7 7 6 6 6 7 6 6 5 5 4 6 6 6 5 5 5 5 5 8 11 13 15 16
7 7 8 8 8 7 10 12 9 8 8 8 9 9 8 10 12 12 13 12 11 9 9 8 8 8 9 8 6 6 5 5 5 3 3 5 4 7 7 9 12 15 16
8 8 8 8 9 10 13 13 13 9 9 10 10 10 9 9 10 9 10 11 12 13 14 11 11 12 10 8 6 7 7 7 8 5 4 7 6 8 8 11 15 17 17
7 8 9 9 9 11 14 14 14 10 10 11 11 11 11 11 10 10 9 9 10 10 11 10 11 12 12 10 9 8 8 8 8 7 6 6 7 8 8 10 15 18 19
8 8 7 9 10 12 14 15 13 8 9 12 12 12 12 12 14 13 10 11 12 11 11 14 15 15 15 15 11 7 7 7 8 8 6 6 7 7 8 9 11 16 17
8 8 9 9 11 12 14 15 13 8 10 11 10 11 14 15 16 14 11 11 12 12 10 9 9 10 11 12 13 11 10 10 9 7 6 6 6 5 5 4 5 6 8
Wind_Direction
128 114 88 60 46 60 94 98 19 345 2 331 309 280 271 264 255 253 255 256 244 229 221 215 211 209 206 202 201 201 201 198 194 192 190 189 187 185 185 184 181 178 177
132 121 98 82 72 73 97 108 98 49 350 334 311 296 271 266 261 261 265 268 262 248 233 223 221 219 217 212 209 209 208 206 201 198 197 196 194 192 192 192 189 187 186
131 117 103 87 68 69 87 85 63 52 24 351 317 307 291 278 272 267 265 266 265 259 247 237 234 231 228 223 219 217 215 212 208 204 202 201 200 199 198 197 195 194 194
131 118 105 81 72 74 73 76 57 46 19 358 327 313 309 297 288 279 269 264 262 260 254 248 245 243 239 234 230 226 222 219 215 210 208 206 204 204 203 202 200 199 199
135 124 112 96 92 80 68 76 65 60 24 349 316 307 321 310 305 302 295 282 266 257 254 254 252 251 247 242 238 234 228 222 220 217 214 211 209 208 208 207 206 204 203
135 121 104 95 93 85 69 66 70 53 36 341 330 337 340 340 341 348 335 326 309 285 265 260 259 260 258 252 246 240 235 227 222 220 219 217 214 211 210 210 209 208 207
142 124 111 101 96 92 85 79 85 58 29 2 15 352 347 1 13 23 10 13 4 343 328 294 271 260 263 259 251 247 241 236 228 224 224 222 220 216 212 212 212 211 210
157 143 134 127 117 104 87 70 80 81 30 24 55 50 2 353 355 7 8 25 17 11 2 344 319 293 273 266 259 254 247 242 236 231 230 228 225 222 217 215 214 213 213
178 159 151 142 134 127 124 108 99 107 80 23 39 106 103 307 316 331 356 11 8 12 5 355 352 336 309 281 271 265 259 250 241 237 236 234 230 225 222 220 218 215 214
175 170 160 153 146 141 138 137 122 119 124 69 18 34 108 167 225 323 326 345 355 6 360 355 351 351 345 317 288 277 273 265 254 244 241 239 236 230 225 223 222 220 218
160 168 165 160 155 153 153 140 131 135 141 157 161 94 71 59 99 211 301 325 335 332 337 335 339 350 352 347 327 307 294 278 265 256 250 243 238 235 232 229 227 226 223
187 177 174 171 170 171 176 174 166 164 171 170 175 179 172 177 199 202 257 297 310 307 314 315 329 341 348 353 347 340 329 311 288 273 264 255 244 238 236 235 233 232 230
196 202 177 177 183 194 194 182 180 196 193 193 201 209 210 217 202 194 224 269 290 300 310 308 304 319 338 347 347 345 337 328 306 289 277 266 255 247 241 237 236 236 234
199 197 186 191 202 205 199 187 198 217 210 217 225 219 224 231 211 204 207 226 288 299 293 287 301 297 324 330 327 332 326 321 309 294 283 275 267 258 251 244 241 240 239
196 193 194 198 209 209 203 189 213 232 225 233 241 238 238 244 228 224 219 212 228 278 290 278 283 298 312 312 311 312 309 307 303 292 284 274 267 262 256 251 248 245 243
193 188 200 206 213 215 208 201 221 232 231 244 241 244 249 252 245 234 226 223 219 233 264 266 263 283 296 301 303 302 298 300 295 287 279 272 266 263 259 256 254 251 247
197 203 209 212 220 224 219 213 232 233 236 249 248 242 253 253 252 249 236 229 226 221 253 272 263 273 279 285 297 301 295 290 289 286 281 274 267 261 257 257 257 256 253
207 209 210 217 226 228 223 223 240 241 240 251 254 249 257 256 252 250 242 240 238 228 238 269 278 275 267 275 282 290 293 291 286 287 284 278 271 262 257 256 256 255 253
210 211 210 218 226 230 230 232 234 243 245 248 250 248 253 250 257 255 249 250 251 249 235 252 271 269 270 273 281 284 285 285 287 286 285 279 271 264 259 255 254 254 252
209 213 216 221 227 231 235 238 237 243 249 252 250 247 249 245 251 256 256 253 253 256 251 252 265 270 270 271 265 275 285 281 288 292 285 281 275 269 260 255 255 254 253
215 216 219 228 231 233 237 236 237 243 247 255 256 252 251 251 250 248 251 252 250 254 257 257 265 270 271 269 263 260 273 285 284 270 278 276 274 273 269 261 257 255 253
218 216 222 229 235 239 240 237 233 241 245 249 258 260 258 259 260 259 256 253 245 246 252 255 262 263 267 264 262 259 264 276 283 259 257 277 274 276 272 265 260 257 256
215 220 228 231 238 244 245 247 242 239 244 248 250 256 260 257 249 255 261 265 261 250 243 247 256 259 262 257 254 260 254 252 259 263 268 278 271 271 270 266 261 258 256
216 225 232 234 240 249 247 247 248 245 247 249 248 247 251 258 255 247 255 263 265 262 254 249 248 253 255 255 246 253 262 264 263 259 241 264 271 269 271 268 263 257 255
222 226 231 233 239 251 249 247 246 245 249 253 252 247 244 251 252 242 245 256 266 269 262 250 246 250 253 252 244 247 250 252 267 266 228 240 266 271 271 268 262 255 251
227 232 239 239 240 249 251 247 240 240 250 256 257 251 241 241 247 240 237 244 256 264 267 270 262 261 262 261 249 238 241 248 258 267 237 224 252 257 272 258 256 254 253
Height
1562 1562 1562 1563 1563 1564 1564 1565 1565 1565 1566 1566 1567 1567 1568 1569 1569 1570 1571 1572 1573 1574 1575 1576 1577 1579 1580 1582 1584 1585 1587 1589 1590 1592 1594 1596 1597 1599 1600 1602 1603 1605 1607
1560 1561 1561 1562 1562 1562 1562 1563 1563 1563 1564 1564 1564 1565 1566 1566 1567 1568 1569 1570 1571 1571 1573 1574 1575 1577 1578 1580 1581 1583 1585 1587 1589 1591 1593 1595 1596 1598 1600 1601 1603 1604 1606
1560 1560 1560 1560 1560 1561 1561 1561 1561 1562 1562 1562 1563 1563 1563 1564 1565 1565 1566 1567 1568 1569 1570 1571 1573 1574 1576 1577 1579 1581 1582 1585 1587 1589 1591 1593 1595 1597 1598 1600 1602 1604 1605
1559 1559 1559 1559 1559 1559 1559 1560 1560 1560 1560 1561 1561 1561 1561 1562 1562 1563 1563 1564 1565 1566 1567 1568 1570 1571 1573 1574 1575 1577 1579 1581 1584 1586 1588 1591 1593 1595 1597 1599 1600 1602 1604
1559 1558 1558 1558 1558 1558 1558 1558 1559 1559 1559 1559 1559 1560 1560 1560 1560 1560 1561 1561 1562 1563 1565 1566 1567 1568 1569 1571 1572 1574 1575 1577 1580 1582 1585 1587 1590 1592 1594 1596 1598 1600 1602
1558 1558 1558 1557 1557 1557 1557 1558 1558 1558 1558 1558 1558 1558 1558 1558 1558 1558 1558 1559 1559 1561 1562 1563 1564 1565 1566 1567 1568 1570 1571 1574 1576 1578 1581 1583 1586 1589 1591 1593 1596 1598 1600
1557 1557 1557 1557 1557 1557 1557 1557 1557 1557 1556 1556 1556 1556 1556 1556 1556 1556 1556 1557 1557 1558 1559 1560 1561 1562 1563 1564 1565 1566 1567 1569 1572 1574 1577 1579 1582 1584 1587 1590 1592 1594 1597
1557 1557 1557 1556 1556 1556 1556 1556 1556 1556 1555 1555 1555 1554 1554 1556 1555 1555 1555 1556 1556 1556 1557 1557 1558 1559 1560 1561 1562 1563 1564 1565 1567 1569 1572 1574 1577 1580 1582 1585 1588 1590 1593
1556 1556 1556 1556 1556 1556 1556 1555 1555 1555 1555 1554 1554 1554 1554 1553 1554 1554 1554 1554 1554 1555 1555 1555 1556 1556 1557 1558 1559 1559 1561 1562 1563 1565 1567 1569 1572 1574 1577 1580 1583 1586 1588
1555 1555 1556 1555 1555 1555 1555 1555 1554 1554 1554 1553 1553 1553 1553 1553 1553 1553 1553 1553 1553 1553 1553 1553 1553 1554 1554 1555 1555 1556 1557 1558 1559 1560 1562 1564 1566 1569 1571 1574 1577 1580 1583
1554 1554 1554 1555 1555 1554 1554 1554 1553 1553 1553 1552 1552 1552 1552 1552 1552 1552 1551 1551 1551 1551 1551 1551 1551 1551 1552 1552 1552 1553 1553 1554 1555 1556 1557 1559 1561 1563 1565 1568 1571 1574 1576
1552 1553 1553 1553 1553 1553 1553 1553 1552 1552 1551 1551 1551 1550 1550 1550 1550 1550 1549 1548 1548 1548 1549 1549 1549 1549 1549 1549 1549 1549 1550 1550 1551 1552 1552 1554 1555 1557 1559 1561 1564 1567 1570
1550 1551 1551 1552 1552 1552 1552 1551 1551 1551 1550 1550 1549 1549 1549 1548 1548 1548 1547 1546 1545 1544 1545 1546 1546 1546 1546 1546 1546 1546 1546 1547 1547 1547 1548 1549 1550 1551 1553 1555 1558 1560 1563
1548 1549 1549 1550 1550 1550 1550 1550 1549 1549 1548 1548 1548 1547 1547 1547 1546 1546 1545 1544 1543 1542 1541 1542 1542 1542 1542 1542 1542 1542 1543 1543 1543 1543 1544 1544 1545 1546 1547 1549 1551 1553 1556
1546 1546 1547 1547 1548 1548 1548 1548 1547 1547 1547 1546 1546 1545 1545 1545 1544 1543 1543 1542 1542 1539 1538 1538 1538 1539 1538 1538 1538 1538 1538 1538 1539 1539 1539 1540 1540 1541 1542 1543 1545 1547 1549
1543 1544 1545 1545 1546 1546 1546 1545 1545 1544 1544 1544 1543 1543 1542 1542 1541 1541 1540 1539 1539 1538 1535 1534 1534 1534 1534 1534 1533 1533 1533 1533 1534 1534 1535 1535 1535 1536 1537 1538 1539 1540 1542
1541 1542 1543 1543 1543 1543 1543 1543 1542 1542 1542 1541 1540 1540 1539 1539 1538 1538 1537 1536 1535 1534 1532 1530 1530 1530 1529 1529 1528 1528 1528 1528 1528 1529 1529 1530 1530 1531 1531 1532 1533 1534 1535
1539 1540 1540 1540 1541 1541 1540 1540 1540 1539 1539 1538 1538 1537 1536 1535 1535 1534 1533 1532 1531 1530 1528 1526 1525 1525 1524 1524 1523 1523 1522 1522 1522 1522 1523 1523 1524 1524 1525 1526 1526 1527 1528
1536 1537 1537 1538 1538 1538 1538 1537 1537 1536 1536 1535 1534 1534 1533 1532 1531 1530 1529 1527 1526 1525 1524 1522 1520 1520 1519 1519 1518 1518 1517 1517 1517 1516 1517 1517 1517 1518 1518 1519 1520 1520 1521
1533 1534 1534 1534 1535 1534 1534 1534 1533 1533 1532 1532 1531 1530 1529 1527 1526 1525 1524 1523 1521 1520 1519 1517 1515 1515 1514 1514 1513 1512 1511 1511 1511 1511 1511 1511 1511 1511 1512 1512 1513 1514 1514
1530 1530 1531 1531 1531 1531 1531 1530 1530 1529 1528 1528 1527 1526 1524 1523 1522 1520 1519 1517 1516 1515 1514 1512 1511 1510 1509 1508 1508 1507 1506 1505 1504 1504 1504 1504 1505 1505 1505 1506 1506 1507 1507
1526 1526 1527 1527 1527 1527 1527 1526 1526 1525 1524 1523 1522 1521 1520 1518 1517 1515 1514 1512 1511 1510 1508 1507 1505 1504 1503 1503 1503 1501 1500 1499 1498 1499 1498 1498 1498 1498 1498 1499 1499 1500 1500
1522 1522 1523 1523 1522 1522 1522 1522 1521 1520 1519 1518 1517 1516 1515 1513 1512 1510 1509 1507 1506 1504 1503 1502 1500 1499 1498 1498 1497 1495 1495 1493 1492 1492 1492 1490 1491 1490 1491 1492 1492 1492 1493
1517 1518 1518 1518 1517 1517 1517 1516 1516 1515 1513 1512 1511 1510 1509 1508 1506 1505 1503 1501 1500 1499 1498 1496 1494 1493 1492 1492 1491 1490 1488 1487 1486 1486 1486 1483 1483 1483 1484 1484 1484 1485 1485
1512 1512 1512 1512 1512 1511 1511 1511 1510 1508 1507 1506 1505 1504 1503 1502 1501 1499 1497 1495 1493 1492 1491 1490 1488 1487 1486 1485 1484 1483 1482 1481 1478 1478 1479 1477 1476 1476 1475 1475 1476 1477 1477
1507 1507 1506 1506 1506 1505 1505 1504 1504 1502 1500 1499 1498 1497 1496 1495 1494 1492 1490 1488 1486 1485 1484 1483 1481 1480 1479 1478 1477 1476 1475 1474 1472 1470 1470 1471 1470 1470 1468 1467 1469 1469 1470